星链-1296 (STARLINK-1296 )

导读

STARLINK-1296是美国SpaceX公司星链(Starlink)星座的成员卫星,于2020年3月18日发射升空。星链计划旨在构建全球卫星互联网星座,为偏远地区提供宽带接入服务。这颗卫星运行在近地轨道,属于星链组网的第一批卫星之一,和其他星链卫星一起为后续大规模组网和全球服务落地奠定了基础。目前它已成为全球规模最大卫星互联网星座的重要组成部分。

基本信息
目录编号:
45412
目录名称:
STARLINK-1296
国际标识:
2020-019BE
轨道中心:
EARTH
卫星名称:
星链-1296
卫星全名:
星链-1296 (STARLINK-1296 )
卫星状态:
在轨 (已飞行2362 天)
发射日期:
2020-03-18 UTC
国别 :
美国 (US)
星等 :
--
轨道信息
数据来源 国际轨道数据
星历时间: 2026-09-04T16:44:50+0800
1天前
查看轨道信息
半长轴: 6806.914km
偏心率: 0.0001436
轨道倾角: 53.153°
近地点辐角 0.192°
升交点赤经 8.966°
平近点角 359.909°
近地点: 427.799km
远地点: 429.755km
周期: 93.150分钟
每日圈数: 15.458859
详细信息
固有亮度:
5
最大亮度:
2.5
卫星平台:
Starlink V1.0
覆盖范围:
全球
运营商:
太空探索技术公司
运营商所在国:
美国
制造商(研发单位):
太空探索技术公司
制造商所在国:
美国
使用方式:
暂无
卫星简介
星链(Starlink)计划是由太空探索技术公司(SpaceX)提出的一个巨型低轨卫星互联网星座项目,计划在2019年至2024年间在太空搭建由约1.2万颗卫星组成的“星链”网络,其中1584颗将部署在地球上空550千米处的近地轨道,并从2020年开始工作。该卫星仍在工作。
2D轨道图
3D轨道图
轨道高度分析图
轨道倾角分析图
轨道综合分析图
查看轨道综合分析图
交会数据列表
事件ID 空间交会对象 最接近时刻(TCA) 交会距离 交会风险概率(CRP) 交会风险指数(CRI) 操作
CDM_260906-090804-541204-567721
2026-09-06T
09:08:40+0000
2.592 km
极远距离
1.025253E-6 低风险 0.35
CDM_260905-105704-541206-052422
2026-09-05T
10:57:29+0000
2.739 km
极远距离
9.637648E-7 极低风险 0.35